Regional Weather Roundup
Issued by NWS

Home | Current Version | Previous Version | Text Only | Print | Product List | Glossary Off
Versions: 1 2 3 4 5 6 7 8 9 10 11 12 13 14 15 16 17 18 19 20 21 22 23 24 25 26 27 28 29 30 31 32 33 34 35 36 37 38 39 40 41 42 43 44 45 46 47 48 49 50

000
ASUS43 KOAX 191810
RWRNE

WEATHER ROUNDUP FOR NEBRASKA
NATIONAL WEATHER SERVICE OMAHA NE
100 PM CDT SAT AUG 19 2017

NOTES: SATELLITE DATA IS BEING USED TO AUGMENT CLOUD COVER ABOVE
       12000 FEET.
       "FAIR" INDICATES FEW OR NO CLOUDS BELOW 12,000 FEET WITH NO
       SIGNIFICANT WEATHER AND/OR OBSTRUCTIONS TO VISIBILITY.


NEZ001>004-019>022-054>056-191900-
NEBRASKA PANHANDLE

CITY           SKY/WX    TMP DP  RH WIND       PRES   REMARKS
SCOTTSBLUFF    SUNNY     87  48  25 NW14      29.96F
6HR MIN TEMP:  58; 6HR MAX TEMP:  87;

ALLIANCE       SUNNY     86  49  27 W12       29.94F
6HR MIN TEMP:  56; 6HR MAX TEMP:  86;

CHADRON        SUNNY     88  50  27 VRB5      29.89F
6HR MIN TEMP:  55; 6HR MAX TEMP:  88;

GORDON         FAIR      86  54  33 CALM      29.90F
6HR MIN TEMP:  55; 6HR MAX TEMP:  86;

KIMBALL        SUNNY     91  41  17 W13G18    30.04S
SIDNEY         SUNNY     93  46  19 VRB7      30.00F
6HR MIN TEMP:  65; 6HR MAX TEMP:  93;

$$

NEZ057>060-069>072-079>082-191900-
SOUTHWEST NEBRASKA

CITY           SKY/WX    TMP DP  RH WIND       PRES   REMARKS
NORTH PLATTE   SUNNY     88  68  51 S14       29.92F HX  91
6HR MIN TEMP:  56; 6HR MAX TEMP:  88;

IMPERIAL       SUNNY     89  62  40 S15G22    29.96F
6HR MIN TEMP:  60; 6HR MAX TEMP:  89;

LEXINGTON      SUNNY     83  68  59 S13       29.94F
MCCOOK         SUNNY     92  66  42 S17G26    29.93F HX  94
6HR MIN TEMP:  56; 6HR MAX TEMP:  92;

OGALLALA       SUNNY     85  65  51 S9        29.94F
$$

NEZ005>010-023>029-035>040-094-191900-
NORTH CENTRAL NEBRASKA

CITY           SKY/WX    TMP DP  RH WIND       PRES   REMARKS
VALENTINE      SUNNY     91  58  32 S17G24    29.85F HX  90
6HR MIN TEMP:  64; 6HR MAX TEMP:  91;

AINSWORTH      SUNNY     84  60  44 S16       29.89F
BROKEN BOW     SUNNY     87  63  44 S18G26    29.92F
6HR MIN TEMP:  55; 6HR MAX TEMP:  87;

O`NEILL        SUNNY     80  63  55 S15       29.92F
ORD            SUNNY     82  62  50 S10G20    29.92F
6HR MIN TEMP:  56; 6HR MAX TEMP:  82;

THEDFORD       SUNNY     87  63  44 S21G28    29.91F
$$

NEZ041-046>049-061>064-073>077-083>087-191900-
SOUTH CENTRAL NEBRASKA

CITY           SKY/WX    TMP DP  RH WIND       PRES   REMARKS
GRAND ISLAND   SUNNY     82  68  62 SE14      29.95F
6HR MIN TEMP:  58; 6HR MAX TEMP:  82;

AURORA         SUNNY     80  69  70 SE12      29.96F
HASTINGS       SUNNY     84  67  56 SE15      29.96F
6HR MIN TEMP:  63; 6HR MAX TEMP:  84;

HEBRON         SUNNY     87  66  49 SE6       29.96F
HOLDREGE       SUNNY     83  66  56 S14       29.96F
KEARNEY        SUNNY     84  69  60 S15       29.95F
YORK           SUNNY     81  68  65 S9        29.97F
$$

NEZ011>018-030>034-042>045-191900-
NORTHEAST NEBRASKA

CITY           SKY/WX    TMP DP  RH WIND       PRES   REMARKS
NORFOLK        SUNNY     79  63  57 SE12      29.94F
6HR MIN TEMP:  52; 6HR MAX TEMP:  79;

ALBION         SUNNY     79  67  67 SE8       29.95F
BLAIR          SUNNY     80  64  57 SE3       29.97F
COLUMBUS       SUNNY     79  65  62 SE8       29.96F
FREMONT        SUNNY     78  64  60 E6        29.97F
TEKAMAH        SUNNY     78  63  59 VRB5      29.96F
6HR MIN TEMP:  55; 6HR MAX TEMP:  78;

WAYNE          SUNNY     77  63  61 SE9       29.95F
$$

NEZ050>053-065>068-078-088>093-191900-
SOUTHEAST NEBRASKA

CITY           SKY/WX    TMP DP  RH WIND       PRES   REMARKS
LINCOLN        SUNNY     82  63  52 S5        29.97F
6HR MIN TEMP:  59; 6HR MAX TEMP:  83;

OMAHA EPPLEY   SUNNY     82  62  50 SE5       29.96F
6HR MIN TEMP:  59; 6HR MAX TEMP:  83;

BEATRICE       SUNNY     86  66  51 SE6       29.97F
FALLS CITY     SUNNY     84  65  52 SE6       29.97F
6HR MIN TEMP:  62; 6HR MAX TEMP:  84;

NEBRASKA CITY  SUNNY     81  63  53 SE5       29.98F
PLATTSMOUTH    SUNNY     81  55  40 E3        29.98S
$$

NEZ044-045-051>053-067-191900-
OMAHA AREA

CITY           SKY/WX    TMP DP  RH WIND       PRES   REMARKS
OMAHA EPPLEY   SUNNY     82  62  50 SE5       29.96F
6HR MIN TEMP:  59; 6HR MAX TEMP:  83;

BLAIR          SUNNY     80  64  57 SE3       29.97F
FREMONT        SUNNY     78  64  60 E6        29.97F
MILLARD        SUNNY     83  60  45 SE3       29.96F
OFFUTT AFB     MOSUNNY   82  59  45 NE3       29.96F
PLATTSMOUTH    SUNNY     81  55  40 E3        29.98S
WAHOO          FAIR      79  59  50 SE7       29.97S
$$




USA.gov is the U.S. government's official web portal to all federal, state and local government web resources and services.